Stafford, VA

1:14 PM EDT on July 25, 2017 (GMT -0400)
Stafford

Weather History for KRMN - October, 2011

Change the Weather History Date:

Saturday, October 1, 2011

  Actual Average (KNYG) Record (KNYG)
Temperature  
Mean Temperature 56 °F -  
Max Temperature 60 °F 70 °F 82 °F (1998)
Min Temperature 51 °F 52 °F 46 °F (1997)
Degree Days  
Heating Degree Days 10    
Growing Degree Days 6 (Base 50)    
Moisture  
Dew Point 50 °F    
Average Humidity 79    
Maximum Humidity 94    
Minimum Humidity 63    
Precipitation  
Precipitation 0.00 in - - ()
Sea Level Pressure  
Sea Level Pressure 29.82 in    
Wind  
Wind Speed 10 mph (NW)    
Max Wind Speed 17 mph    
Max Gust Speed 28 mph    
Visibility 10 miles    
Events Rain    
Averages and records for this station are not official NWS values.
T = Trace of Precipitation, MM = Missing Value Source: NWS Daily Summary

Daily Weather History Graph

Daily Weather History Graph

Search for Another Location

Airport or City:

Trip Planner

Search our weather history database for the weather conditions in past years. The results will help you decide how hot, cold, wet, or windy it might be!

Date:

Astronomy

Oct. 01, 2011 Rise Set
Actual Time 7:05 AM EDT 6:53 PM EDT
Civil Twilight 6:38 AM EDT 7:19 PM EDT
Nautical Twilight 6:08 AM EDT 7:50 PM EDT
Astronomical Twilight 5:37 AM EDT 8:21 PM EDT
Moon 12:04 PM EDT (10/1) 9:53 PM EDT (10/1)
Length of Visible Light 12h 40m
Length of Day
11h 47m
Waxing Crescent, 24% of the Moon is Illuminated
Oct 1
Waxing Crescent
Oct 3
First Quarter
Oct 11
Full
Oct 19
Last Quarter
Oct 26
New

Hourly Weather History & Observations

Time (EDT) Temp. Dew Point Humidity Pressure Visibility Wind Dir Wind Speed Gust Speed Precip Events Conditions
12:15 AM 59.0 °F 55.4 °F 88% 29.75 in 10.0 mi WNW 4.6 mph - N/A   Overcast
12:35 AM 59.0 °F 53.6 °F 82% 29.76 in 10.0 mi NW 5.8 mph - N/A   Overcast
12:55 AM 59.0 °F 51.8 °F 77% 29.75 in 10.0 mi NNW 10.4 mph - N/A   Overcast
1:15 AM 59.0 °F 51.8 °F 77% 29.77 in 10.0 mi NW 15.0 mph 19.6 mph N/A   Overcast
1:35 AM 59.0 °F 51.8 °F 77% 29.76 in 10.0 mi NW 13.8 mph 19.6 mph N/A   Overcast
1:55 AM 59.0 °F 51.8 °F 77% 29.76 in 10.0 mi NNW 9.2 mph - N/A   Overcast
2:15 AM 59.0 °F 51.8 °F 77% 29.76 in 10.0 mi NW 9.2 mph - N/A   Overcast
2:35 AM 59.0 °F 53.6 °F 82% 29.76 in 10.0 mi NW 10.4 mph 17.3 mph N/A   Overcast
2:55 AM 55.4 °F 51.8 °F 88% 29.76 in 10.0 mi NW 6.9 mph - N/A   Overcast
3:15 AM 55.4 °F 51.8 °F 88% 29.76 in 10.0 mi NW 6.9 mph - N/A   Overcast
3:35 AM 55.4 °F 51.8 °F 88% 29.76 in 10.0 mi NNW 8.1 mph - N/A   Overcast
3:55 AM 55.4 °F 50.0 °F 82% 29.76 in 10.0 mi NNW 16.1 mph - N/A   Overcast
4:15 AM 55.4 °F 50.0 °F 82% 29.77 in 10.0 mi NNW 13.8 mph 19.6 mph N/A   Overcast
4:35 AM 53.6 °F 50.0 °F 88% 29.77 in 10.0 mi NNW 15.0 mph 19.6 mph N/A   Light Drizzle
4:55 AM 53.6 °F 48.2 °F 82% 29.77 in 10.0 mi NNW 17.3 mph 24.2 mph N/A   Overcast
5:15 AM 53.6 °F 46.4 °F 77% 29.78 in 10.0 mi NW 13.8 mph 21.9 mph N/A   Overcast
5:35 AM 53.6 °F 50.0 °F 88% 29.79 in 10.0 mi NNW 6.9 mph - N/A Rain Light Rain
5:55 AM 53.6 °F 51.8 °F 94% 29.79 in 10.0 mi NNW 5.8 mph - N/A   Drizzle
6:15 AM 51.8 °F 50.0 °F 94% 29.79 in 10.0 mi NNW 11.5 mph 16.1 mph N/A Rain Rain
6:35 AM 51.8 °F 46.4 °F 82% 29.80 in 10.0 mi NW 10.4 mph - N/A Rain Light Rain
6:55 AM 51.8 °F 46.4 °F 82% 29.81 in 10.0 mi NNW 5.8 mph - N/A   Overcast
7:15 AM 51.8 °F 46.4 °F 82% 29.82 in 10.0 mi NNW 3.5 mph - N/A   Overcast
7:35 AM 53.6 °F 50.0 °F 88% 29.82 in 10.0 mi Calm Calm - N/A   Overcast
7:55 AM 53.6 °F 50.0 °F 88% 29.83 in 10.0 mi Calm Calm - N/A   Overcast
8:15 AM 53.6 °F 50.0 °F 88% 29.83 in 10.0 mi NW 9.2 mph - N/A Rain Light Rain
8:35 AM 53.6 °F 48.2 °F 82% 29.83 in 10.0 mi NW 12.7 mph - N/A   Overcast
8:55 AM 53.6 °F 48.2 °F 82% 29.84 in 10.0 mi NNW 13.8 mph 18.4 mph N/A   Overcast
9:15 AM 53.6 °F 50.0 °F 88% 29.84 in 10.0 mi NW 9.2 mph 18.4 mph N/A   Overcast
9:35 AM 53.6 °F 48.2 °F 82% 29.85 in 10.0 mi WNW 11.5 mph 19.6 mph N/A   Overcast
9:55 AM 53.6 °F 50.0 °F 88% 29.86 in 10.0 mi NW 9.2 mph 18.4 mph N/A   Overcast
10:15 AM 53.6 °F 50.0 °F 88% 29.86 in 10.0 mi NNW 12.7 mph - N/A   Overcast
10:35 AM 53.6 °F 48.2 °F 82% 29.87 in 10.0 mi NW 16.1 mph 19.6 mph N/A   Overcast
10:55 AM 53.6 °F 48.2 °F 82% 29.87 in 10.0 mi NNW 15.0 mph 23.0 mph N/A   Overcast
11:15 AM 55.4 °F 48.2 °F 77% 29.86 in 10.0 mi NW 15.0 mph 27.6 mph N/A   Overcast
11:35 AM 55.4 °F 48.2 °F 77% 29.87 in 10.0 mi NW 12.7 mph - N/A   Mostly Cloudy
11:55 AM 57.2 °F 48.2 °F 72% 29.87 in 10.0 mi NNW 13.8 mph 23.0 mph N/A   Mostly Cloudy
12:15 PM 57.2 °F 50.0 °F 77% 29.87 in 10.0 mi North 12.7 mph 17.3 mph N/A   Overcast
12:35 PM 59.0 °F 50.0 °F 72% 29.86 in 10.0 mi NNW 12.7 mph - N/A   Mostly Cloudy
12:55 PM 59.0 °F 50.0 °F 72% 29.86 in 10.0 mi NNW 15.0 mph 18.4 mph N/A   Mostly Cloudy
1:15 PM 59.0 °F 50.0 °F 72% 29.86 in 10.0 mi NW 16.1 mph - N/A   Overcast
1:35 PM 59.0 °F 50.0 °F 72% 29.85 in 10.0 mi NNW 13.8 mph 17.3 mph N/A   Overcast
1:55 PM 57.2 °F 50.0 °F 77% 29.85 in 10.0 mi NNW 13.8 mph 19.6 mph N/A   Overcast
2:15 PM 59.0 °F 50.0 °F 72% 29.84 in 10.0 mi NW 12.7 mph 21.9 mph N/A   Mostly Cloudy
2:35 PM 60.8 °F 50.0 °F 68% 29.84 in 10.0 mi NNW 11.5 mph 20.7 mph N/A   Scattered Clouds
2:55 PM 59.0 °F 48.2 °F 67% 29.84 in 10.0 mi WNW 10.4 mph 18.4 mph N/A   Mostly Cloudy
3:15 PM 59.0 °F 48.2 °F 67% 29.84 in 10.0 mi NW 13.8 mph 18.4 mph N/A   Overcast
3:35 PM 59.0 °F 48.2 °F 67% 29.84 in 10.0 mi WNW 8.1 mph 18.4 mph N/A   Mostly Cloudy
3:55 PM 59.0 °F 46.4 °F 63% 29.85 in 10.0 mi WNW 11.5 mph - N/A   Mostly Cloudy
4:15 PM 59.0 °F 46.4 °F 63% 29.85 in 10.0 mi WNW 12.7 mph - N/A   Overcast
4:35 PM 57.2 °F 48.2 °F 72% 29.85 in 10.0 mi NNW 12.7 mph - N/A   Overcast
4:55 PM 55.4 °F 46.4 °F 72% 29.86 in 10.0 mi NW 10.4 mph - N/A   Overcast
5:15 PM 55.4 °F 48.2 °F 77% 29.87 in 10.0 mi NW 12.7 mph - N/A   Overcast
5:35 PM 55.4 °F 46.4 °F 72% 29.87 in 10.0 mi NW 15.0 mph - N/A   Overcast
5:55 PM 55.4 °F 46.4 °F 72% 29.87 in 10.0 mi NNW 13.8 mph 18.4 mph N/A   Overcast
6:15 PM 53.6 °F 46.4 °F 77% 29.88 in 10.0 mi NW 10.4 mph - N/A   Overcast
6:35 PM 53.6 °F 48.2 °F 82% 29.88 in 10.0 mi NW 8.1 mph - N/A   Overcast
6:55 PM 53.6 °F 48.2 °F 82% 29.88 in 10.0 mi NW 6.9 mph 10.4 mph N/A   Overcast
7:15 PM 53.6 °F 48.2 °F 82% 29.88 in 10.0 mi NW 9.2 mph - N/A   Overcast
7:35 PM 53.6 °F 48.2 °F 82% 29.89 in 10.0 mi NW 12.7 mph - N/A   Overcast
8:15 PM 51.8 °F 46.4 °F 82% 29.89 in 10.0 mi NW 11.5 mph - N/A   Overcast
8:35 PM 51.8 °F 46.4 °F 82% 29.89 in 10.0 mi NW 11.5 mph 16.1 mph N/A   Overcast
8:55 PM 51.8 °F 46.4 °F 82% 29.89 in 10.0 mi WNW 9.2 mph - N/A   Overcast
9:15 PM 51.8 °F 46.4 °F 82% 29.89 in 10.0 mi WNW 8.1 mph - N/A   Overcast
9:35 PM 50.0 °F 48.2 °F 94% 29.89 in 10.0 mi West 6.9 mph - N/A   Overcast
9:55 PM 50.0 °F 48.2 °F 94% 29.88 in 10.0 mi West 8.1 mph - N/A   Overcast
10:15 PM 48.2 °F 48.2 °F 100% 29.88 in 10.0 mi West 9.2 mph - N/A   Drizzle
10:35 PM 48.2 °F 48.2 °F 100% 29.87 in 10.0 mi West 10.4 mph 17.3 mph N/A Rain Light Rain
10:55 PM 48.2 °F 48.2 °F 100% 29.87 in 10.0 mi West 9.2 mph - N/A Rain Light Rain
11:15 PM 48.2 °F 48.2 °F 100% 29.87 in 10.0 mi West 6.9 mph - N/A Rain Light Rain
11:35 PM 48.2 °F 48.2 °F 100% 29.87 in 10.0 mi West 8.1 mph - 0.01 in Rain Light Rain